Orbital Elements at Epoch 2459200.5 (2020-Dec-17.0) TDB
Reference: JPL 22 (heliocentric ecliptic J2000)
Element | Value | Uncertainty (1-sigma) | Units |
e | .08705124356992772 | 6.0761e-08 | |
a | 2.175878699395405 | 9.5701e-09 | au |
q | 1.986465752755718 | 1.3331e-07 | au |
i | 4.386280247154361 | 5.9566e-06 | deg |
node | 43.40192070415086 | 5.4042e-05 | deg |
peri | 326.2433786862708 | 5.7304e-05 | deg |
M | 230.6474651032993 | 1.9277e-05 | deg |
tp | 2459621.733488827622 (2022-Feb-11.23348883) | 6.3549e-05 | TDB |
period | 1172.331536440666 3.21 | 7.7343e-06 2.118e-08 | d yr |
n | .3070803683171414 | 2.0259e-09 | deg/d |
Q | 2.365291646035092 | 1.0403e-08 | au |
|
| | Orbit Determination Parameters
Additional Information
|